DateTime,MC
2016-01-01 00:00:00.000,58.808331
2016-01-01 00:10:00.000,59.374001
2016-01-01 00:20:00.000,58.720833
2016-01-01 00:30:00.000,57.98
2016-01-01 00:40:00.000,57.606003
2016-01-01 00:50:00.000,56.762001
2016-01-01 01:00:00.000,55.659184
2016-01-01 01:10:00.000,54.94286
2016-01-01 01:20:00.000,54.263268
2016-01-01 01:30:00.000,52.922451
2016-01-01 01:40:00.000,53.167347
2016-01-01 01:50:00.000,54.807999
2016-01-01 02:00:00.000,57.063263
2016-01-01 02:10:00.000,58.257141
2016-01-01 02:20:00.000,58.035999
2016-01-01 02:30:00.000,57.861225
2016-01-01 02:40:00.000,57.07143
2016-01-01 02:50:00.000,56.338776
2016-01-01 03:00:00.000,55.452
2016-01-01 03:10:00.000,55.685715
2016-01-01 03:20:00.000,57.383675
2016-01-01 03:30:00.000,58.669388
2016-01-01 03:40:00.000,60.971428
2016-01-01 03:50:00.000,63.469387
2016-01-01 04:00:00.000,64.772003
2016-01-01 04:10:00.000,65.767998
2016-01-01 04:20:00.000,66.177551
2016-01-01 04:30:00.000,65.614288
2016-01-01 04:40:00.000,64.800003
2016-01-01 04:50:00.000,63.400002
2016-01-01 05:00:00.000,62.799999
2016-01-01 05:10:00.000,63.267998
2016-01-01 05:20:00.000,64.081635
2016-01-01 05:30:00.000,65.773468
2016-01-01 05:40:00.000,67.199997
2016-01-01 05:50:00.000,68.767349
2016-01-01 06:00:00.000,70.189796
2016-01-01 06:10:00.000,70.985718
2016-01-01 06:20:00.000,70.706245
2016-01-01 06:30:00.000,70.332657
2016-01-01 06:40:00.000,69.885712
2016-01-01 06:50:00.000,68.916
2016-01-01 07:00:00.000,68.150002
2016-01-01 07:10:00.000,67.300003
2016-01-01 07:20:00.000,68.050003
2016-01-01 07:30:00.000,68.438774
2016-01-01 07:40:00.000,68.18
2016-01-01 07:50:00.000,67.704002
2016-01-01 08:00:00.000,66.679588
2016-01-01 08:10:00.000,65.271423
2016-01-01 08:20:00.000,63.561226
2016-01-01 08:30:00.000,62.700001
2016-01-01 08:40:00.000,62.018368
2016-01-01 08:50:00.000,61.981998
2016-01-01 09:00:00.000,61.866001
2016-01-01 09:10:00.000,60.957142
2016-01-01 09:20:00.000,59.908165
2016-01-01 09:30:00.000,59.375
2016-01-01 09:40:00.000,58.973999
2016-01-01 09:50:00.000,58.270832
2016-01-01 10:00:00.000,58.124001
2016-01-01 10:10:00.000,58.077553
2016-01-01 10:20:00.000,57.859184
2016-01-01 10:30:00.000,57.938
2016-01-01 10:40:00.000,58.025002
2016-01-01 10:50:00.000,58.051998
2016-01-01 11:00:00.000,57.751022
2016-01-01 11:10:00.000,58.871429
2016-01-01 11:20:00.000,59.814285
2016-01-01 11:30:00.000,59.798
2016-01-01 11:40:00.000,59.4375
2016-01-01 11:50:00.000,58.977551
2016-01-01 12:00:00.000,59.028572
2016-01-01 12:10:00.000,58.514286
2016-01-01 12:20:00.000,58.273468
2016-01-01 12:30:00.000,58.038776
2016-01-01 12:40:00.000,57.641998
2016-01-01 12:50:00.000,58.279999
2016-01-01 13:00:00.000,58.700001
2016-01-01 13:10:00.000,58.528572
2016-01-01 13:20:00.000,57.965309
2016-01-01 13:30:00.000,58.028572
2016-01-01 13:40:00.000,58.036736
2016-01-01 13:50:00.000,57.153999
2016-01-01 14:00:00.000,56.2551
2016-01-01 14:10:00.000,55.473999
2016-01-01 14:20:00.000,54.768749
2016-01-01 14:30:00.000,53.692001
2016-01-01 14:40:00.000,52.628571
2016-01-01 14:50:00.000,52.195919
2016-01-01 15:00:00.000,51.940002
2016-01-01 15:10:00.000,52.128571
2016-01-01 15:20:00.000,52.489796
2016-01-01 15:30:00.000,52.67347
2016-01-01 15:40:00.000,53.368
2016-01-01 15:50:00.000,53.706123
2016-01-01 16:00:00.000,53.993877
2016-01-01 16:10:00.000,54.342857
2016-01-01 16:20:00.000,54.542858
2016-01-01 16:30:00.000,55.110001
2016-01-01 16:40:00.000,55.883999
2016-01-01 16:50:00.000,56.212246
2016-01-01 17:00:00.000,56.598
2016-01-01 17:10:00.000,57.544899
2016-01-01 17:20:00.000,58.089794
2016-01-01 17:30:00.000,58.138775
2016-01-01 17:40:00.000,57.858002
2016-01-01 17:50:00.000,57.912243
2016-01-01 18:00:00.000,58.737499
2016-01-01 18:10:00.000,59.667999
2016-01-01 18:20:00.000,60.587502
2016-01-01 18:30:00.000,61.843998
2016-01-01 18:40:00.000,63.019997
2016-01-01 18:50:00.000,65.314285
2016-01-01 19:00:00.000,67.053062
2016-01-01 19:10:00.000,67.971428
2016-01-01 19:20:00.000,68.59388
2016-01-01 19:30:00.000,69.10408
2016-01-01 19:40:00.000,70.028572
2016-01-01 19:50:00.000,69.946938
2016-01-01 20:00:00.000,69.285713
2016-01-01 20:10:00.000,69.328568
2016-01-01 20:20:00.000,70.191833
2016-01-01 20:30:00.000,71.851021
2016-01-01 20:40:00.000,74.085709
2016-01-01 20:50:00.000,74.873466
2016-01-01 21:00:00.000,75.130608
2016-01-01 21:10:00.000,75.563271
2016-01-01 21:20:00.000,76.051018
2016-01-01 21:30:00.000,75.914001
2016-01-01 21:40:00.000,76.228577
2016-01-01 21:50:00.000,77.34082
2016-01-01 22:00:00.000,77.097961
2016-01-01 22:10:00.000,75.928574
2016-01-01 22:20:00.000,74.279594
2016-01-01 22:30:00.000,72.881996
2016-01-01 22:40:00.000,70.771431
2016-01-01 22:50:00.000,69.371429
2016-01-01 23:00:00.000,70.455109
2016-01-01 23:10:00.000,72.585716
2016-01-01 23:20:00.000,74.320412
2016-01-01 23:30:00.000,74.944893
2016-01-01 23:40:00.000,75.115997
2016-01-01 23:50:00.000,74.35714
2016-01-02 00:00:00.000,72.804085
2016-01-02 00:10:00.000,70.980003
2016-01-02 00:20:00.000,70.09388
2016-01-02 00:30:00.000,70.554001
2016-01-02 00:40:00.000,72.493881
2016-01-02 00:50:00.000,75.940819
2016-01-02 01:00:00.000,79.597961
2016-01-02 01:10:00.000,83.271431
2016-01-02 01:20:00.000,85.871429
2016-01-02 01:30:00.000,87.437996
2016-01-02 01:40:00.000,86.814285
2016-01-02 01:50:00.000,85.106125
2016-01-02 02:00:00.000,82.650002
2016-01-02 02:10:00.000,79.646942
2016-01-02 02:20:00.000,77.085709
2016-01-02 02:30:00.000,74.428574
2016-01-02 02:40:00.000,71.642853
2016-01-02 02:50:00.000,69.520409
2016-01-02 03:00:00.000,67.710205
2016-01-02 03:10:00.000,65.900002
2016-01-02 03:20:00.000,63.973999
2016-01-02 03:30:00.000,62.448982
2016-01-02 03:40:00.000,61.555103
2016-01-02 03:50:00.000,60.307999
2016-01-02 04:00:00.000,59.342857
2016-01-02 04:10:00.000,59
2016-01-02 04:20:00.000,58.855103
2016-01-02 04:30:00.000,58.959183
2016-01-02 04:40:00.000,58.671429
2016-01-02 04:50:00.000,58.583672
2016-01-02 05:00:00.000,58.40612
2016-01-02 05:10:00.000,57.977551
2016-01-02 05:20:00.000,57.657143
2016-01-02 05:30:00.000,57.826
2016-01-02 05:40:00.000,57.957142
2016-01-02 05:50:00.000,57.793877
2016-01-02 06:00:00.000,57.695919
2016-01-02 06:10:00.000,57.371429
2016-01-02 06:20:00.000,57.200001
2016-01-02 06:30:00.000,57.138775
2016-01-02 06:40:00.000,57.242859
2016-01-02 06:50:00.000,57.473469
2016-01-02 07:00:00.000,58.178001
2016-01-02 07:10:00.000,58.742859
2016-01-02 07:20:00.000,58.77755
2016-01-02 07:30:00.000,58.906124
2016-01-02 07:40:00.000,60.12653
2016-01-02 07:50:00.000,60.885715
2016-01-02 08:00:00.000,60.675999
2016-01-02 08:10:00.000,61.204082
2016-01-02 08:20:00.000,61.664001
2016-01-02 08:30:00.000,61.450001
2016-01-02 08:40:00.000,60.616001
2016-01-02 08:50:00.000,60.520409
2016-01-02 09:00:00.000,60.529999
2016-01-02 09:10:00.000,60.014286
2016-01-02 09:20:00.000,60.308163
2016-01-02 09:30:00.000,61.224491
2016-01-02 09:40:00.000,62.014286
2016-01-02 09:50:00.000,62.875511
2016-01-02 10:00:00.000,64.418365
2016-01-02 10:10:00.000,67.559998
2016-01-02 10:20:00.000,70.171997
2016-01-02 10:30:00.000,72.210205
2016-01-02 10:40:00.000,74.328575
2016-01-02 10:50:00.000,76.289795
2016-01-02 11:00:00.000,77.461227
2016-01-02 11:10:00.000,77.316002
2016-01-02 11:20:00.000,77.887756
2016-01-02 11:30:00.000,79.351021
2016-01-02 11:40:00.000,80.208336
2016-01-02 11:50:00.000,80.354904
2016-01-02 12:00:00.000,80.099998
2016-01-02 12:10:00.000,80.560005
2016-01-02 12:20:00.000,80.211998
2016-01-02 12:30:00.000,78.531998
2016-01-02 12:40:00.000,77.657997
2016-01-02 12:50:00.000,79.159187
2016-01-02 13:00:00.000,81.636734
2016-01-02 13:10:00.000,82.285713
2016-01-02 13:20:00.000,82.338776
2016-01-02 13:30:00.000,82.389801
2016-01-02 13:40:00.000,81.655106
2016-01-02 13:50:00.000,79.891838
2016-01-02 14:00:00.000,78.053062
2016-01-02 14:10:00.000,78.371429
2016-01-02 14:20:00.000,79.328575
2016-01-02 14:30:00.000,80.489799
2016-01-02 14:40:00.000,82.540001
2016-01-02 14:50:00.000,83.724495
2016-01-02 15:00:00.000,83.824493
2016-01-02 15:10:00.000,82.695999
2016-01-02 15:20:00.000,80.708328
2016-01-02 15:30:00.000,78.727997
2016-01-02 15:40:00.000,75.110413
2016-01-02 15:50:00.000,71.379997
2016-01-02 16:00:00.000,68.804001
2016-01-02 16:10:00.000,66.342857
2016-01-02 16:20:00.000,64.270004
2016-01-02 16:30:00.000,62.610203
2016-01-02 16:40:00.000,61.84
2016-01-02 16:50:00.000,62.183998
2016-01-02 17:00:00.000,61.787998
2016-01-02 17:10:00.000,61.540817
2016-01-02 17:20:00.000,61.726002
2016-01-02 17:30:00.000,61.761227
2016-01-02 17:40:00.000,60.68
2016-01-02 17:50:00.000,58.791836
2016-01-02 18:00:00.000,57.042858
2016-01-02 18:10:00.000,54.995998
2016-01-02 18:20:00.000,52.797958
2016-01-02 18:30:00.000,50.463264
2016-01-02 18:40:00.000,49.216667
2016-01-02 18:50:00.000,49.121998
2016-01-02 19:00:00.000,49.322449
2016-01-02 19:10:00.000,49.625999
2016-01-02 19:20:00.000,50.330612
2016-01-02 19:30:00.000,51.187756
2016-01-02 19:40:00.000,51.92857
2016-01-02 19:50:00.000,52.267345
2016-01-02 20:00:00.000,52.304081
2016-01-02 20:10:00.000,52.5
2016-01-02 20:20:00.000,52.336735
2016-01-02 20:30:00.000,52.42857
2016-01-02 20:40:00.000,52.518368
2016-01-02 20:50:00.000,52.280003
2016-01-02 21:00:00.000,52.463264
2016-01-02 21:10:00.000,52.542
2016-01-02 21:20:00.000,52.912003
2016-01-02 21:30:00.000,53.332653
2016-01-02 21:40:00.000,53.957142
2016-01-02 21:50:00.000,55.187756
2016-01-02 22:00:00.000,55.871429
2016-01-02 22:10:00.000,56.599998
2016-01-02 22:20:00.000,57.431999
2016-01-02 22:30:00.000,57.724998
2016-01-02 22:40:00.000,57.931999
2016-01-02 22:50:00.000,57.015999
2016-01-02 23:00:00.000,56.310204
2016-01-02 23:10:00.000,55.836735
2016-01-02 23:20:00.000,55.139999
2016-01-02 23:30:00.000,54.208164
2016-01-02 23:40:00.000,53.314285
2016-01-02 23:50:00.000,53.004082
2016-01-03 00:00:00.000,52.157143
2016-01-03 00:10:00.000,51.128571
2016-01-03 00:20:00.000,50.883999
2016-01-03 00:30:00.000,51.412498
2016-01-03 00:40:00.000,52.242001
2016-01-03 00:50:00.000,52.365997
2016-01-03 01:00:00.000,52.853062
2016-01-03 01:10:00.000,52.700001
2016-01-03 01:20:00.000,50.829166
2016-01-03 01:30:00.000,48.618
2016-01-03 01:40:00.000,47.214287
2016-01-03 01:50:00.000,46.115997
2016-01-03 02:00:00.000,45.534695
2016-01-03 02:10:00.000,45.604084
2016-01-03 02:20:00.000,47.043999
2016-01-03 02:30:00.000,48.224998
2016-01-03 02:40:00.000,48.099998
2016-01-03 02:50:00.000,48.367348
2016-01-03 03:00:00.000,48.30204
2016-01-03 03:10:00.000,47.757141
2016-01-03 03:20:00.000,48.040817
2016-01-03 03:30:00.000,48.515999
2016-01-03 03:40:00.000,48.114285
2016-01-03 03:50:00.000,47.813999
2016-01-03 04:00:00.000,47.769386
2016-01-03 04:10:00.000,48.181633
2016-01-03 04:20:00.000,47.981998
2016-01-03 04:30:00.000,47.156002
2016-01-03 04:40:00.000,47.200001
2016-01-03 04:50:00.000,46.646938
2016-01-03 05:00:00.000,45.793877
2016-01-03 05:10:00.000,44.748001
2016-01-03 05:20:00.000,43.612244
2016-01-03 05:30:00.000,42.810204
2016-01-03 05:40:00.000,42.700001
2016-01-03 05:50:00.000,42.762501
2016-01-03 06:00:00.000,42.706001
2016-01-03 06:10:00.000,43.042858
2016-01-03 06:20:00.000,43.077549
2016-01-03 06:30:00.000,42.797958
2016-01-03 06:40:00.000,41.885712
2016-01-03 06:50:00.000,41.153061
2016-01-03 07:00:00.000,40.240818
2016-01-03 07:10:00.000,38.832653
2016-01-03 07:20:00.000,37.171429
2016-01-03 07:30:00.000,35.22245
2016-01-03 07:40:00.000,33.438
2016-01-03 07:50:00.000,31.632652
2016-01-03 08:00:00.000,30.676001
2016-01-03 08:10:00.000,30.514286
2016-01-03 08:20:00.000,30.302
2016-01-03 08:30:00.000,30.689795
2016-01-03 08:40:00.000,31.509998
2016-01-03 08:50:00.000,32.209999
2016-01-03 09:00:00.000,32.104
2016-01-03 09:10:00.000,31.416666
2016-01-03 09:20:00.000,31.634001
2016-01-03 09:30:00.000,32.059181
2016-01-03 09:40:00.000,31.857141
2016-01-03 09:50:00.000,32.166
2016-01-03 10:00:00.000,33.015999
2016-01-03 10:10:00.000,33.799999
2016-01-03 10:20:00.000,34.495918
2016-01-03 10:30:00.000,35.293877
2016-01-03 10:40:00.000,37.093998
2016-01-03 10:50:00.000,38.181633
2016-01-03 11:00:00.000,39.278
2016-01-03 11:10:00.000,39.799999
2016-01-03 11:20:00.000,40.224491
2016-01-03 11:30:00.000,40.214287
2016-01-03 11:40:00.000,38.842857
2016-01-03 11:50:00.000,37.770832
2016-01-03 12:00:00.000,36.981632
2016-01-03 12:10:00.000,37.42857
2016-01-03 12:20:00.000,37.559181
2016-01-03 12:30:00.000,37.277554
2016-01-03 12:40:00.000,37.526001
2016-01-03 12:50:00.000,37.904083
2016-01-03 13:00:00.000,38.098
2016-01-03 13:10:00.000,37.874001
2016-01-03 13:20:00.000,37.557144
2016-01-03 13:30:00.000,37.785999
2016-01-03 13:40:00.000,37.674
2016-01-03 13:50:00.000,37.82449
2016-01-03 14:00:00.000,38.779999
2016-01-03 14:10:00.000,39.485714
2016-01-03 14:20:00.000,40.342857
2016-01-03 14:30:00.000,41.528572
2016-01-03 14:40:00.000,43.572002
2016-01-03 14:50:00.000,45.87347
2016-01-03 15:00:00.000,47.313999
2016-01-03 15:10:00.000,48.799999
2016-01-03 15:20:00.000,49.57959
2016-01-03 15:30:00.000,49.867348
2016-01-03 15:40:00.000,50.263264
2016-01-03 15:50:00.000,50.5
2016-01-03 16:00:00.000,50.577549
2016-01-03 16:10:00.000,51.642857
2016-01-03 16:20:00.000,52.998001
2016-01-03 16:30:00.000,54.569389
2016-01-03 16:40:00.000,55.526001
2016-01-03 16:50:00.000,56.387501
2016-01-03 17:00:00.000,56.826
2016-01-03 17:10:00.000,56.116001
2016-01-03 17:20:00.000,56.251019
2016-01-03 17:30:00.000,56.106121
2016-01-03 17:40:00.000,55.842857
2016-01-03 17:50:00.000,55.856003
2016-01-03 18:00:00.000,55.638775
2016-01-03 18:10:00.000,55.577553
2016-01-03 18:20:00.000,54.716
2016-01-03 18:30:00.000,54.340816
2016-01-03 18:40:00.000,55.181633
2016-01-03 18:50:00.000,55.077553
2016-01-03 19:00:00.000,55.962002
2016-01-03 19:10:00.000,56.666668
2016-01-03 19:20:00.000,57.332001
2016-01-03 19:30:00.000,57.37347
2016-01-03 19:40:00.000,57.158001
2016-01-03 19:50:00.000,56.689583
2016-01-03 20:00:00.000,55.628002
2016-01-03 20:10:00.000,55.528572
2016-01-03 20:20:00.000,55.93
2016-01-03 20:30:00.000,56.387756
2016-01-03 20:40:00.000,56.228573
2016-01-03 20:50:00.000,56.144897
2016-01-03 21:00:00.000,55.783997
2016-01-03 21:10:00.000,55.342857
2016-01-03 21:20:00.000,55.192001
2016-01-03 21:30:00.000,54.950001
2016-01-03 21:40:00.000,55.971428
2016-01-03 21:50:00.000,57.7449
2016-01-03 22:00:00.000,59.016327
2016-01-03 22:10:00.000,59.057999
2016-01-03 22:20:00.000,59.17347
2016-01-03 22:30:00.000,59.340816
2016-01-03 22:40:00.000,56.885715
2016-01-03 22:50:00.000,54.285713
2016-01-03 23:00:00.000,50.704082
2016-01-03 23:10:00.000,45.371429
2016-01-03 23:20:00.000,40.567348
2016-01-03 23:30:00.000,36.789795
2016-01-03 23:40:00.000,35.490002
2016-01-03 23:50:00.000,33.424492
2016-01-04 00:00:00.000,32.628574
2016-01-04 00:10:00.000,34.251999
2016-01-04 00:20:00.000,34.889999
2016-01-04 00:30:00.000,34.88163
2016-01-04 00:40:00.000,32.714287
2016-01-04 00:50:00.000,31.25102
2016-01-04 01:00:00.000,30.855103
2016-01-04 01:10:00.000,28.879999
2016-01-04 01:20:00.000,27.55625
2016-01-04 01:30:00.000,26.255102
2016-01-04 01:40:00.000,25.171429
2016-01-04 01:50:00.000,24.40204
2016-01-04 02:00:00.000,23.520409
2016-01-04 02:10:00.000,24.157143
2016-01-04 02:20:00.000,24.214285
2016-01-04 02:30:00.000,22.92449
2016-01-04 02:40:00.000,22.299999
2016-01-04 02:50:00.000,22.171429
2016-01-04 03:00:00.000,21.674
2016-01-04 03:10:00.000,20.241667
2016-01-04 03:20:00.000,18.921999
2016-01-04 03:30:00.000,18.816326
2016-01-04 03:40:00.000,18.185715
2016-01-04 03:50:00.000,17.453062
2016-01-04 04:00:00.000,17.007999
2016-01-04 04:10:00.000,17.614285
2016-01-04 04:20:00.000,18.782
2016-01-04 04:30:00.000,20.895918
2016-01-04 04:40:00.000,21.9
2016-01-04 04:50:00.000,22.179592
2016-01-04 05:00:00.000,22.787754
2016-01-04 05:10:00.000,22.971428
2016-01-04 05:20:00.000,23.659184
2016-01-04 05:30:00.000,22.903999
2016-01-04 05:40:00.000,22.728571
2016-01-04 05:50:00.000,23.157143
2016-01-04 06:00:00.000,23.626532
2016-01-04 06:10:00.000,23.858
2016-01-04 06:20:00.000,22.973999
2016-01-04 06:30:00.000,22.491837
2016-01-04 06:40:00.000,21.842857
2016-01-04 07:00:00.000,18.347916
2016-01-04 07:10:00.000,14.416667
2016-01-04 07:20:00.000,12.894
2016-01-04 07:30:00.000,12.190001
2016-01-04 07:40:00.000,13.208163
2016-01-04 07:50:00.000,13.732654
2016-01-04 08:00:00.000,14.285714
2016-01-04 08:10:00.000,16
2016-01-04 08:20:00.000,16.42449
2016-01-04 08:30:00.000,17.156
2016-01-04 08:40:00.000,16.857141
2016-01-04 08:50:00.000,17.548979
2016-01-04 09:00:00.000,19.0625
2016-01-04 09:10:00.000,20.903999
2016-01-04 09:20:00.000,21.420408
2016-01-04 09:30:00.000,21.004082
2016-01-04 09:40:00.000,21.841999
2016-01-04 09:50:00.000,22.067347
2016-01-04 10:00:00.000,22.110205
2016-01-04 10:10:00.000,22.814285
2016-01-04 10:20:00.000,23.52449
2016-01-04 10:30:00.000,23.630611
2016-01-04 10:40:00.000,22.700001
2016-01-04 10:50:00.000,23.032654
2016-01-04 11:00:00.000,23.389999
2016-01-04 11:10:00.000,22.728571
2016-01-04 11:20:00.000,22.625999
2016-01-04 11:30:00.000,23.055101
2016-01-04 11:40:00.000,23.128571
2016-01-04 11:50:00.000,22.269388
2016-01-04 12:00:00.000,21.864
2016-01-04 12:10:00.000,21.114286
2016-01-04 12:20:00.000,21.665306
2016-01-04 12:30:00.000,23.312246
2016-01-04 12:40:00.000,24.842857
2016-01-04 12:50:00.000,26.506123
2016-01-04 13:00:00.000,27.7125
2016-01-04 13:10:00.000,28.242001
2016-01-04 13:20:00.000,27.834
2016-01-04 13:30:00.000,26.289795
2016-01-04 13:40:00.000,24.906
2016-01-04 13:50:00.000,23.445833
2016-01-04 14:00:00.000,23.156
2016-01-04 14:10:00.000,23.700001
2016-01-04 14:20:00.000,23.985714
2016-01-04 14:30:00.000,25.27347
2016-01-04 14:40:00.000,25.714285
2016-01-04 14:50:00.000,25.644897
2016-01-04 15:00:00.000,25.863264
2016-01-04 15:10:00.000,26.181633
2016-01-04 15:20:00.000,25.544001
2016-01-04 15:30:00.000,24.265306
2016-01-04 15:40:00.000,25.6
2016-01-04 15:50:00.000,27.32653
2016-01-04 16:00:00.000,27.922449
2016-01-04 16:10:00.000,28.128571
2016-01-04 16:20:00.000,29.472
2016-01-04 16:30:00.000,31.595919
2016-01-04 16:40:00.000,31.699999
2016-01-04 16:50:00.000,32.122448
2016-01-04 17:00:00.000,34.287998
2016-01-04 17:10:00.000,35.040817
2016-01-04 17:20:00.000,35.636734
2016-01-04 17:30:00.000,36.657143
2016-01-04 17:40:00.000,37.385715
2016-01-04 17:50:00.000,37.948978
2016-01-04 18:00:00.000,37.32449
2016-01-04 18:10:00.000,39.142857
2016-01-04 18:20:00.000,39.891666
2016-01-04 18:30:00.000,38.359184
2016-01-04 18:40:00.000,37.299999
2016-01-04 18:50:00.000,36.246941
2016-01-04 19:00:00.000,35.830612
2016-01-04 19:10:00.000,35.242859
2016-01-04 19:20:00.000,35.142002
2016-01-04 19:30:00.000,36.910206
2016-01-04 19:40:00.000,38.942856
2016-01-04 19:50:00.000,39.606125
2016-01-04 20:00:00.000,39.382
2016-01-04 20:10:00.000,40.016666
2016-01-04 20:20:00.000,41.091999
2016-01-04 20:30:00.000,41.259182
2016-01-04 20:40:00.000,40.895916
2016-01-04 20:50:00.000,40.956001
2016-01-04 21:00:00.000,41.708164
2016-01-04 21:10:00.000,41.010204
2016-01-04 21:20:00.000,39.2449
2016-01-04 21:30:00.000,38.608162
2016-01-04 21:40:00.000,39.042858
2016-01-04 21:50:00.000,38.353062
2016-01-04 22:00:00.000,36.351997
2016-01-04 22:10:00.000,34.771427
2016-01-04 22:20:00.000,33.171429
2016-01-04 22:30:00.000,29.775509
2016-01-04 22:40:00.000,26.328571
2016-01-04 22:50:00.000,24.616327
2016-01-04 23:00:00.000,23.986
2016-01-04 23:10:00.000,24.625999
2016-01-04 23:20:00.000,26.057142
2016-01-04 23:30:00.000,27.969999
2016-01-04 23:40:00.000,29.114285
2016-01-04 23:50:00.000,30.37755
2016-01-05 00:00:00.000,31.47551
2016-01-05 00:10:00.000,30.491837
2016-01-05 00:20:00.000,29.073469
2016-01-05 00:30:00.000,28.342857
2016-01-05 00:40:00.000,28.514286
2016-01-05 00:50:00.000,27.65102
2016-01-05 01:00:00.000,25.985714
2016-01-05 01:10:00.000,24.169388
2016-01-05 01:20:00.000,22.087755
2016-01-05 01:30:00.000,20.785715
2016-01-05 01:40:00.000,21.042858
2016-01-05 01:50:00.000,22.184
2016-01-05 02:00:00.000,23.230612
2016-01-05 02:10:00.000,25.214287
2016-01-05 02:20:00.000,27.112246
2016-01-05 02:30:00.000,28.742857
2016-01-05 02:40:00.000,28.306
2016-01-05 02:50:00.000,27.648979
2016-01-05 03:00:00.000,27.338776
2016-01-05 03:10:00.000,26.885714
2016-01-05 03:20:00.000,26.854166
2016-01-05 03:30:00.000,25.794001
2016-01-05 03:40:00.000,24.871429
2016-01-05 03:50:00.000,24.532654
2016-01-05 04:00:00.000,24.310205
2016-01-05 04:10:00.000,23.390001
2016-01-05 04:20:00.000,23.212246
2016-01-05 04:30:00.000,24.122448
2016-01-05 04:40:00.000,25.285715
2016-01-05 04:50:00.000,24.834694
2016-01-05 05:00:00.000,24.088001
2016-01-05 05:10:00.000,24.9
2016-01-05 05:20:00.000,25.694
2016-01-05 05:30:00.000,26
2016-01-05 05:40:00.000,25.958
2016-01-05 05:50:00.000,25.587755
2016-01-05 06:00:00.000,25.795918
2016-01-05 06:10:00.000,26.285715
2016-01-05 06:20:00.000,26.19375
2016-01-05 06:30:00.000,25.252001
2016-01-05 06:40:00.000,24.299999
2016-01-05 06:50:00.000,24.82
2016-01-05 07:00:00.000,25.557142
2016-01-05 07:10:00.000,25.985714
2016-01-05 07:20:00.000,26.598
2016-01-05 07:30:00.000,27.069387
2016-01-05 07:40:00.000,27.609999
2016-01-05 07:50:00.000,28.089796
2016-01-05 08:00:00.000,28.196001
2016-01-05 08:10:00.000,28
2016-01-05 08:20:00.000,28.112246
2016-01-05 08:30:00.000,29.077551
2016-01-05 08:40:00.000,29.885714
2016-01-05 08:50:00.000,30.871428
2016-01-05 09:00:00.000,32.07959
2016-01-05 09:10:00.000,32.914288
2016-01-05 09:20:00.000,33.593998
2016-01-05 09:30:00.000,33.897961
2016-01-05 09:40:00.000,33.714283
2016-01-05 09:50:00.000,33.05714
2016-01-05 10:00:00.000,32.377552
2016-01-05 10:10:00.000,31.722
2016-01-05 10:20:00.000,30.116667
2016-01-05 10:30:00.000,28.986
2016-01-05 10:40:00.000,28.559183
2016-01-05 10:50:00.000,28.181999
2016-01-05 11:00:00.000,27.146938
2016-01-05 11:10:00.000,26.359182
2016-01-05 11:20:00.000,26.382
2016-01-05 11:30:00.000,26.4
2016-01-05 11:40:00.000,26.116001
2016-01-05 11:50:00.000,26.514286
2016-01-05 12:00:00.000,27.582001
2016-01-05 12:10:00.000,28.557142
2016-01-05 12:20:00.000,29.487755
2016-01-05 12:30:00.000,30.708
2016-01-05 12:40:00.000,31.642859
2016-01-05 12:50:00.000,31.163265
2016-01-05 13:00:00.000,29.757143
2016-01-05 13:10:00.000,28.557142
2016-01-05 13:20:00.000,26.823999
2016-01-05 13:30:00.000,24.200001
2016-01-05 13:40:00.000,22.106001
2016-01-05 13:50:00.000,21.259184
2016-01-05 14:00:00.000,20.893877
2016-01-05 14:10:00.000,19.664
2016-01-05 14:20:00.000,19.144897
2016-01-05 14:30:00.000,20.005999
2016-01-05 14:40:00.000,20.928572
2016-01-05 14:50:00.000,21.285999
2016-01-05 15:00:00.000,21.467346
2016-01-05 15:10:00.000,21.952
2016-01-05 15:20:00.000,22.891836
2016-01-05 15:30:00.000,23.362
2016-01-05 15:40:00.000,23.485714
2016-01-05 15:50:00.000,24.186001
2016-01-05 16:00:00.000,25.7125
2016-01-05 16:10:00.000,27.878
2016-01-05 16:20:00.000,29.191837
2016-01-05 16:30:00.000,30.191999
2016-01-05 16:40:00.000,31.785713
2016-01-05 16:50:00.000,33.12653
2016-01-05 17:00:00.000,34.179592
2016-01-05 17:10:00.000,35.194
2016-01-05 17:20:00.000,36.875999
2016-01-05 17:30:00.000,39.285713
2016-01-05 17:40:00.000,41.43
2016-01-05 17:50:00.000,43.740818
2016-01-05 18:00:00.000,45.814285
2016-01-05 18:10:00.000,48.085712
2016-01-05 18:20:00.000,48.510204
2016-01-05 18:30:00.000,48.200001
2016-01-05 18:40:00.000,48.174
2016-01-05 18:50:00.000,47.508163
2016-01-05 19:00:00.000,46.341999
2016-01-05 19:10:00.000,45.07143
2016-01-05 19:20:00.000,44.624489
2016-01-05 19:30:00.000,43.955101